Location: Tyler Bend Campground
(35.9875°N, 92.7606°W)
Time: 11:35:50
(UTC-05:00)

CZ-2C R/B - Visible Passes

Search period start: 01 April 2015 00:00
Search period end: 11 April 2015 00:00
Orbit: 669 x 786 km, 98.1° (Epoch: 31 March)

Date Brightness Start Highest point End Pass type
(mag) Time Alt. Az. Time Alt. Az. Time Alt. Az.
01 Apr 5.2 21:12:22 10° WSW 21:14:46 14° W 21:16:57 10° WNW visible
02 Apr 3.4 20:22:15 10° S 20:26:38 45° W 20:31:05 10° NNW visible
03 Apr 5.3 21:15:33 10° WSW 21:17:39 13° W 21:19:30 10° WNW visible
04 Apr 3.6 20:25:08 10° S 20:29:28 42° W 20:33:54 10° NNW visible
05 Apr 5.4 21:18:47 10° WSW 21:20:31 12° W 21:21:58 10° WNW visible
06 Apr 3.8 20:28:01 10° SSW 20:32:19 39° W 20:36:42 10° NNW visible
07 Apr 5.5 21:22:10 10° WSW 21:23:24 11° W 21:24:18 10° WNW visible
08 Apr 3.9 20:30:54 10° SSW 20:35:09 36° W 20:39:29 10° NNW visible
10 Apr 4.1 20:33:47 10° SSW 20:37:59 34° W 20:42:16 10° NNW visible
